FW3572 Weather Reports


time (UTC)temp
F
wind
direction
speed
knots
gust
knots
rain 1hr
in
rain 24hr
in
rain mn
in
humidity
%
barometer
mb
20260902122023 80 313 0.0 1.7 0.00 0.00 0.00 100 1017.2
20260902121522 80 313 0.0 1.7 0.00 0.00 0.00 100 1017.1
20260902121023 79 315 0.0 0.9 0.00 0.00 0.00 100 1017.0
20260902120523 79 315 0.0 0.0 0.00 0.00 0.00 100 1017.0
20260902120022 79 315 0.0 0.0 0.00 0.00 0.00 100 1017.0
20260902115522 79 315 0.0 0.0 0.00 0.00 0.00 100 1017.0
20260902115022 79 315 0.0 0.0 0.00 0.00 0.00 100 1016.9
20260902114522 78 315 0.0 0.0 0.00 0.00 0.00 100 1016.9
20260902114021 78 315 0.0 0.0 0.00 0.00 0.00 100 1016.9
20260902113521 78 315 0.0 0.0 0.00 0.00 0.00 100 1016.9
20260902113022 78 315 0.0 0.0 0.00 0.00 0.00 100 1016.9
20260902112522 78 315 0.0 0.0 0.00 0.00 0.00 100 1016.9
20260902112026 78 315 0.0 0.0 0.00 0.00 0.00 100 1016.9
20260902111533 78 315 0.0 0.0 0.00 0.00 0.00 100 1016.9
20260902111023 78 315 0.0 0.0 0.00 0.00 0.00 100 1017.0
20260902110520 78 315 0.0 0.0 0.00 0.00 0.00 100 1016.9
20260902110021 78 315 0.0 0.0 0.00 0.00 0.00 100 1016.9
20260902105520 78 315 0.0 1.7 0.00 0.00 0.00 100 1016.8
20260902105020 78 315 0.0 1.7 0.00 0.00 0.00 100 1016.9
20260902104520 78 315 0.9 1.7 0.00 0.00 0.00 100 1016.7
20260902104020 78 308 0.0 1.7 0.00 0.00 0.00 100 1016.7
20260902103520 78 306 0.0 1.7 0.00 0.00 0.00 100 1016.6
20260902103020 78 306 0.0 3.5 0.00 0.00 0.00 100 1016.5
20260902102520 78 307 0.0 3.5 0.00 0.00 0.00 100 1016.4
20260902102019 78 326 0.0 3.5 0.00 0.00 0.00 100 1016.3
20260902101521 78 307 0.9 2.6 0.00 0.00 0.00 100 1016.3
20260902101025 78 316 0.0 2.6 0.00 0.00 0.00 100 1016.3
20260902100518 78 302 0.0 1.7 0.00 0.00 0.00 100 1016.3
20260902100020 78 302 0.0 0.0 0.00 0.00 0.00 100 1016.5
20260902095519 78 302 0.0 0.0 0.00 0.00 0.00 100 1016.5
20260902095018 78 302 0.0 0.0 0.00 0.00 0.00 100 1016.5
20260902094518 78 302 0.0 0.0 0.00 0.00 0.00 100 1016.3
20260902094018 78 302 0.0 0.0 0.00 0.00 0.00 100 1016.3
20260902093519 78 302 0.0 0.0 0.00 0.00 0.00 100 1016.3
20260902093017 78 302 0.0 0.0 0.00 0.00 0.00 100 1016.3
20260902092517 78 302 0.0 0.0 0.00 0.00 0.00 100 1016.3
20260902092021 78 302 0.0 0.0 0.00 0.00 0.00 100 1016.2
20260902091517 78 302 0.0 0.0 0.00 0.00 0.00 100 1016.2
20260902091018 78 302 0.0 0.0 0.00 0.00 0.00 100 1016.3
20260902090516 78 302 0.0 0.0 0.00 0.00 0.00 100 1016.4
20260902090016 78 302 0.0 0.0 0.00 0.00 0.00 100 1016.4
20260902085516 78 302 0.0 0.0 0.00 0.00 0.00 100 1016.3
20260902085018 78 302 0.0 0.0 0.00 0.00 0.00 100 1016.3
20260902084515 78 302 0.0 0.0 0.00 0.00 0.00 100 1016.2
20260902084016 78 300 0.0 1.7 0.00 0.00 0.00 100 1016.2
20260902083515 78 301 0.0 2.6 0.00 0.00 0.00 100 1016.1
20260902083015 78 292 0.9 2.6 0.00 0.00 0.00 100 1016.0
20260902082515 78 308 0.0 1.7 0.00 0.00 0.00 100 1016.0
20260902082014 78 309 0.0 2.6 0.00 0.00 0.00 100 1016.1
20260902081513 78 309 0.0 2.6 0.00 0.00 0.00 100 1016.1
20260902081013 78 317 0.0 0.0 0.00 0.00 0.00 100 1016.0
20260902080513 78 317 0.0 0.0 0.00 0.00 0.00 100 1016.2
20260902080013 78 317 0.0 0.0 0.00 0.00 0.00 100 1016.2
20260902075514 78 317 0.0 0.0 0.00 0.00 0.00 100 1016.2
20260902075013 78 323 0.0 0.0 0.00 0.00 0.00 100 1016.0
20260902074512 78 313 0.0 0.0 0.00 0.00 0.00 100 1016.0
20260902074012 78 313 0.0 0.0 0.00 0.00 0.00 100 1016.1
20260902073511 78 312 0.0 0.0 0.00 0.00 0.00 100 1016.2
20260902073011 78 309 0.0 0.0 0.00 0.00 0.00 100 1016.1
20260902072511 78 308 0.0 0.0 0.00 0.00 0.00 100 1016.2
20260902072010 78 306 0.0 0.0 0.00 0.00 0.00 100 1016.1
20260902071516 78 306 0.0 0.0 0.00 0.00 0.00 100 1016.2
20260902071009 78 306 0.0 0.0 0.00 0.00 0.00 100 1016.3
20260902070510 78 307 0.0 0.0 0.00 0.00 0.00 100 1016.3
20260902070010 79 307 0.0 0.0 0.00 0.00 0.00 100 1016.3
20260902065510 78 308 0.0 0.0 0.00 0.00 0.00 100 1016.3
20260902065009 78 290 0.0 0.0 0.00 0.00 0.00 100 1016.3
20260902064510 78 289 0.0 0.0 0.00 0.00 0.00 100 1016.3
20260902064007 78 288 0.0 0.0 0.00 0.00 0.00 100 1016.3
20260902063507 79 289 0.0 0.0 0.00 0.00 0.00 100 1016.4
20260902063007 78 289 0.0 0.0 0.00 0.00 0.00 100 1016.5
20260902062507 79 325 0.0 0.0 0.00 0.00 0.00 100 1016.5
20260902062005 79 325 0.0 0.0 0.00 0.00 0.00 100 1016.4
20260902061505 79 325 0.0 0.0 0.00 0.00 0.00 100 1016.5
20260902061008 79 325 0.0 0.0 0.00 0.00 0.00 100 1016.6
20260902060505 79 325 0.0 0.0 0.00 0.00 0.00 100 1016.6
20260902060005 79 327 0.0 0.0 0.00 0.00 0.00 100 1016.7
20260902055504 79 327 0.0 0.0 0.00 0.00 0.00 100 1016.6
20260902055004 79 327 0.0 0.0 0.00 0.00 0.00 100 1016.5
20260902054504 79 327 0.0 0.0 0.00 0.01 0.00 100 1016.5
20260902054003 79 328 0.0 0.0 0.00 0.01 0.00 100 1016.5
20260902053503 79 328 0.0 0.0 0.00 0.01 0.00 100 1016.7
20260902053004 79 328 0.0 0.0 0.00 0.01 0.00 100 1016.6
20260902052504 79 329 0.0 0.0 0.00 0.01 0.00 100 1016.6
20260902052003 79 329 0.0 0.0 0.00 0.01 0.00 100 1016.5
20260902051502 79 329 0.0 0.0 0.00 0.01 0.00 100 1016.6
20260902051004 79 329 0.0 0.0 0.00 0.01 0.00 100 1016.6
20260902050503 79 329 0.0 0.0 0.00 0.01 0.00 100 1016.7
20260902050107 79 329 0.0 0.0 0.00 0.01 0.00 100 1016.8
20260902050001 79 329 0.0 0.0 0.00 0.01 0.00 100 1016.8
20260902045559 79 329 0.0 0.0 0.00 0.01 0.00 100 1016.7
20260902045101 79 329 0.0 0.0 0.00 0.01 0.00 100 1016.9
20260902044602 79 329 0.0 0.0 0.00 0.01 0.00 100 1016.9
20260902044100 80 329 0.0 0.0 0.00 0.01 0.00 100 1016.8
20260902043559 79 329 0.0 0.0 0.00 0.01 0.00 100 1016.9
20260902043059 80 329 0.0 0.0 0.00 0.01 0.00 100 1016.8
20260902042601 80 329 0.0 0.0 0.00 0.01 0.00 100 1016.9
20260902042058 80 329 0.0 0.0 0.00 0.01 0.00 100 1016.9
20260902041559 80 328 0.0 0.0 0.00 0.01 0.00 100 1016.8
20260902041057 80 329 0.0 1.7 0.00 0.01 0.00 100 1016.9
20260902040601 80 329 0.0 2.6 0.00 0.01 0.00 100 1016.8
20260902040057 80 329 0.0 2.6 0.00 0.01 0.00 100 1016.9
20260902035556 80 355 0.0 0.0 0.00 0.01 0.00 100 1017.0
20260902035055 80 355 0.0 0.0 0.00 0.01 0.00 100 1017.1
20260902034557 80 355 0.0 0.0 0.00 0.01 0.01 100 1017.2
20260902034055 80 355 0.0 0.0 0.00 0.01 0.01 100 1017.2
20260902033556 80 355 0.0 0.0 0.00 0.01 0.01 100 1017.3
20260902033056 80 355 0.0 0.0 0.00 0.01 0.01 100 1017.4
20260902032555 80 355 0.0 0.0 0.00 0.01 0.01 100 1017.2
20260902032054 80 355 0.0 0.0 0.00 0.01 0.01 100 1017.2
20260902031605 80 355 0.0 0.0 0.00 0.01 0.01 100 1017.3
20260902031054 80 355 0.0 0.0 0.00 0.01 0.01 100 1017.4
20260902030554 80 355 0.0 0.0 0.00 0.01 0.01 100 1017.5
20260902030053 80 355 0.0 1.7 0.00 0.01 0.01 100 1017.5
20260902025553 80 355 0.0 1.7 0.00 0.01 0.01 100 1017.6
20260902025054 80 355 0.0 0.0 0.00 0.01 0.01 100 1017.5
20260902024558 80 355 0.0 1.7 0.00 0.01 0.01 100 1017.5
20260902024053 80 355 0.0 1.7 0.00 0.01 0.01 100 1017.6
20260902023552 80 355 0.0 0.0 0.00 0.01 0.01 100 1017.6
20260902023055 80 355 0.0 0.9 0.00 0.01 0.01 100 1017.6
20260902022552 80 355 0.0 0.9 0.00 0.01 0.01 100 1017.6
20260902022051 80 355 0.0 0.0 0.00 0.01 0.01 100 1017.6
20260902021606 80 355 0.0 0.9 0.00 0.01 0.01 100 1017.7
20260902021055 80 355 0.0 0.9 0.00 0.01 0.01 100 1017.5
20260902020552 80 355 0.0 0.0 0.00 0.01 0.01 100 1017.4
20260902015554 80 355 0.0 0.9 0.00 0.01 0.01 100 1017.4
20260902015053 80 355 0.0 0.0 0.00 0.01 0.01 100 1017.4
20260902014551 80 355 0.0 0.9 0.00 0.01 0.01 100 1017.3
20260902014051 80 355 0.0 0.9 0.00 0.01 0.01 100 1017.4
20260902013551 80 355 0.0 1.7 0.00 0.01 0.01 100 1017.4
20260902013051 80 355 0.0 2.6 0.00 0.01 0.01 100 1017.4
20260902012550 80 355 0.0 2.6 0.00 0.01 0.01 100 1017.3
20260902012050 80 355 0.9 2.6 0.00 0.01 0.01 100 1017.3
20260902011550 80 355 0.0 2.6 0.00 0.01 0.01 100 1017.1
20260902011050 80 355 0.9 2.6 0.00 0.01 0.01 100 1017.0
20260902010549 80 347 0.0 2.6 0.00 0.01 0.01 100 1017.0
20260902010049 80 345 0.0 1.7 0.00 0.01 0.01 100 1016.9
20260902005549 80 334 0.0 2.6 0.00 0.01 0.01 100 1016.9
20260902005050 80 327 0.0 3.5 0.00 0.01 0.01 100 1016.8
20260902004549 80 360 0.0 3.5 0.00 0.01 0.01 100 1016.8
20260902004048 80 360 0.9 4.3 0.00 0.01 0.01 100 1016.8
20260902003547 80 355 1.7 4.3 0.00 0.01 0.01 100 1016.9
20260902003048 81 346 0.9 3.5 0.00 0.01 0.01 100 1017.0
20260902002547 81 360 1.7 3.5 0.00 0.01 0.01 100 1017.0
20260902002050 82 323 0.0 3.5 0.00 0.01 0.01 100 1017.0
20260902001550 82 355 0.9 2.6 0.00 0.01 0.01 100 1017.1
20260902001048 82 325 0.9 2.6 0.00 0.01 0.01 100 1017.1
20260902000550 82 134 0.0 0.9 0.00 0.01 0.01 100 1017.0
20260902000047 82 134 0.0 0.9 0.00 0.01 0.01 100 1017.0
20260901235547 82 134 0.0 0.9 0.00 0.01 0.01 100 1017.0
20260901235045 82 134 0.0 0.9 0.00 0.01 0.01 100 1017.0
20260901234548 81 134 0.0 0.0 0.00 0.01 0.01 100 1017.0
20260901234047 81 134 0.0 0.9 0.00 0.01 0.01 100 1016.9
20260901233546 81 134 0.0 0.9 0.00 0.01 0.01 100 1016.9
20260901233049 82 134 0.0 0.9 0.00 0.01 0.01 100 1016.9
20260901232545 81 132 0.0 3.5 0.00 0.01 0.01 100 1016.9
20260901232045 81 132 0.9 3.5 0.00 0.01 0.01 100 1016.9
20260901231546 82 133 0.9 3.5 0.00 0.01 0.01 100 1016.8
20260901231045 82 132 1.7 5.2 0.00 0.01 0.01 100 1016.9
20260901230545 82 134 1.7 5.2 0.00 0.01 0.01 100 1016.9
20260901230100 82 130 2.6 5.2 0.00 0.01 0.01 100 1016.7
20260901225544 82 123 0.0 7.8 0.00 0.01 0.01 100 1016.6
20260901225044 83 106 0.9 6.1 0.00 0.01 0.01 100 1016.7
20260901224545 83 119 1.7 6.1 0.00 0.01 0.01 100 1016.7
20260901224044 83 128 0.0 5.2 0.00 0.01 0.01 100 1016.6
20260901223544 84 57 0.0 3.5 0.00 0.01 0.01 100 1016.6
20260901223053 84 30 0.9 3.5 0.00 0.01 0.01 100 1016.6
20260901222543 84 9 0.0 4.3 0.00 0.01 0.01 100 1016.6
20260901222046 84 5 0.0 4.3 0.00 0.01 0.01 100 1016.7
20260901221544 84 50 0.9 4.3 0.00 0.01 0.01 100 1016.7
20260901221043 84 360 0.9 3.5 0.00 0.01 0.01 100 1016.7
20260901220542 84 110 0.0 3.5 0.00 0.01 0.01 100 1016.7
20260901220104 84 63 0.0 4.3 0.00 0.01 0.01 100 1016.7
20260901215543 84 46 0.0 7.0 0.00 0.01 0.01 100 1016.5
20260901215043 84 107 0.9 7.0 0.00 0.01 0.01 100 1016.5
20260901214541 84 92 0.9 6.1 0.00 0.01 0.01 100 1016.4
20260901214044 85 31 1.7 10.4 0.00 0.01 0.01 100 1016.3
20260901213543 85 360 2.6 10.4 0.00 0.01 0.01 100 1016.2
20260901213046 85 360 3.5 9.6 0.00 0.01 0.01 100 1016.2
20260901212541 85 16 3.5 8.7 0.00 0.01 0.01 100 1016.2
20260901212040 85 360 0.9 8.7 0.00 0.01 0.01 100 1016.2
20260901211540 86 45 3.5 8.7 0.00 0.01 0.01 100 1016.2
20260901211041 86 341 0.9 7.8 0.00 0.01 0.01 100 1016.2
20260901210539 86 347 1.7 7.0 0.00 0.01 0.01 100 1016.3
20260901210039 86 5 0.9 7.8 0.00 0.01 0.01 100 1016.4
20260901205539 86 339 2.6 7.8 0.00 0.01 0.01 100 1016.4
20260901205039 86 21 0.9 8.7 0.00 0.01 0.01 100 1016.2
20260901204541 87 101 2.6 8.7 0.00 0.02 0.01 100 1016.2
20260901204041 88 36 3.5 9.6 0.00 0.02 0.01 100 1016.2
20260901203537 88 9 1.7 9.6 0.00 0.02 0.01 100 1016.2
20260901203039 88 5 3.5 9.6 0.00 0.02 0.01 100 1016.3
20260901202533 88 11 2.6 10.4 0.00 0.02 0.01 100 1016.4
20260901202032 88 24 4.3 10.4 0.00 0.02 0.01 100 1016.3
20260901201531 88 33 2.6 9.6 0.00 0.02 0.01 100 1016.3
20260901201030 87 23 1.7 7.0 0.00 0.02 0.01 100 1016.4
20260901200530 86 82 0.0 7.0 0.00 0.02 0.01 100 1016.5
20260901200029 86 12 3.5 8.7 0.00 0.02 0.01 100 1016.5
20260901195529 86 15 1.7 9.6 0.00 0.02 0.01 100 1016.7
20260901195033 87 30 4.3 9.6 0.00 0.02 0.01 100 1016.8
20260901194533 88 360 2.6 7.8 0.00 0.02 0.01 100 1016.8
20260901194028 87 349 0.9 7.8 0.00 0.02 0.01 100 1016.9
20260901193528 87 28 2.6 10.4 0.00 0.02 0.01 100 1016.7
20260901193032 88 342 3.5 10.4 0.00 0.02 0.01 100 1016.8
20260901192525 89 47 3.5 9.6 0.00 0.02 0.01 100 1016.8
20260901192023 88 28 3.5 9.6 0.00 0.02 0.01 100 1016.7
20260901191523 87 346 3.5 8.7 0.00 0.02 0.01 100 1016.8
20260901191024 87 355 2.6 8.7 0.00 0.02 0.01 100 1016.8
20260901190526 87 53 1.7 10.4 0.00 0.02 0.01 100 1017.0
20260901190023 87 324 4.3 10.4 0.00 0.02 0.01 100 1016.8
20260901185523 87 77 1.7 8.7 0.00 0.02 0.01 100 1016.9
20260901185022 87 17 4.3 8.7 0.00 0.02 0.01 100 1016.9
20260901184538 88 261 3.5 9.6 0.00 0.02 0.01 100 1017.0
20260901184025 88 5 3.5 10.4 0.00 0.02 0.01 100 1017.1
20260901183523 90 331 4.3 10.4 0.00 0.02 0.01 100 1017.1
20260901183020 90 45 3.5 9.6 0.00 0.02 0.01 100 1017.2
20260901182521 90 28 2.6 10.4 0.00 0.02 0.01 100 1017.3
20260901182017 90 9 2.6 10.4 0.00 0.02 0.01 100 1017.5
20260901181526 90 38 1.7 13.9 0.00 0.02 0.01 100 1017.6
20260901181016 89 17 5.2 13.9 0.00 0.02 0.01 100 1017.6
20260901180516 89 9 3.5 10.4 0.00 0.02 0.01 100 1017.6
20260901180017 90 5 3.5 10.4 0.00 0.02 0.01 100 1017.6
20260901175515 90 26 4.3 10.4 0.00 0.02 0.01 100 1017.4
20260901175013 89 227 3.5 12.2 0.00 0.02 0.01 100 1017.4
20260901174534 89 341 6.1 14.8 0.00 0.02 0.01 100 1017.4
20260901174010 89 17 4.3 14.8 0.00 0.02 0.01 100 1017.3
20260901173509 88 63 6.1 13.0 0.00 0.02 0.01 100 1017.4
20260901173007 89 29 4.3 9.6 0.00 0.02 0.01 100 1017.6
20260901172510 89 107 0.9 8.7 0.00 0.02 0.01 100 1017.8
20260901172004 89 79 0.9 8.7 0.00 0.02 0.01 100 1017.8
20260901171502 89 126 2.6 11.3 0.00 0.02 0.01 100 1018.0
20260901171001 89 67 3.5 11.3 0.00 0.02 0.01 100 1018.0
20260901170600 89 360 3.5 10.4 0.00 0.02 0.01 100 1018.1
20260901170101 89 11 5.2 10.4 0.00 0.02 0.01 100 1018.1
20260901165556 89 56 3.5 10.4 0.00 0.02 0.01 100 1018.1
20260901165058 89 102 1.7 11.3 0.00 0.02 0.01 100 1017.9
20260901164556 89 355 4.3 11.3 0.00 0.02 0.01 100 1018.0
20260901164054 89 347 5.2 11.3 0.00 0.02 0.01 100 1018.1
20260901163551 89 112 0.9 7.8 0.00 0.02 0.01 100 1018.1
20260901163049 89 21 1.7 8.7 0.00 0.02 0.01 100 1018.1
20260901162548 89 9 2.6 8.7 0.00 0.02 0.01 100 1018.1
20260901162047 88 346 2.6 7.8 0.00 0.02 0.01 100 1018.3
20260901161602 89 39 2.6 8.7 0.00 0.02 0.01 100 1018.2
20260901161048 89 336 4.3 8.7 0.00 0.02 0.01 100 1018.2
20260901160543 89 38 1.7 8.7 0.00 0.02 0.01 100 1018.3
20260901160104 88 36 3.5 9.6 0.00 0.02 0.01 100 1018.3
20260901155543 88 50 2.6 9.6 0.00 0.02 0.01 100 1018.3
20260901155043 89 325 3.5 9.6 0.00 0.02 0.01 100 1018.3
20260901154541 89 319 1.7 10.4 0.00 0.02 0.01 100 1018.2
20260901154040 88 17 3.5 10.4 0.00 0.02 0.01 100 1018.3
20260901153539 89 31 4.3 10.4 0.00 0.02 0.01 100 1018.3
20260901153037 88 58 2.6 7.8 0.00 0.02 0.01 100 1018.4
20260901152535 88 39 3.5 9.6 0.00 0.02 0.01 100 1018.5
20260901152034 88 44 2.6 9.6 0.00 0.02 0.01 100 1018.5
20260901151532 88 138 0.9 7.0 0.00 0.02 0.01 100 1018.5
20260901151031 88 40 2.6 7.8 0.00 0.02 0.01 100 1018.4
20260901150531 87 5 2.6 9.6 0.00 0.02 0.01 100 1018.5
20260901150028 88 360 4.3 9.6 0.00 0.02 0.01 100 1018.4
20260901145526 88 360 2.6 7.8 0.00 0.02 0.01 100 1018.4
20260901145025 88 5 1.7 7.0 0.00 0.02 0.01 100 1018.3
20260901144523 87 355 0.9 7.0 0.00 0.02 0.01 100 1018.3
20260901144021 87 75 1.7 7.0 0.00 0.02 0.01 100 1018.3
20260901143520 87 28 1.7 7.8 0.00 0.02 0.01 100 1018.3
20260901143021 87 346 0.9 7.8 0.00 0.02 0.01 100 1018.1
20260901142518 87 22 0.9 7.0 0.00 0.02 0.01 100 1018.1
20260901142016 87 323 1.7 7.8 0.00 0.02 0.01 100 1018.1
20260901141514 86 340 2.6 7.8 0.00 0.02 0.01 100 1018.0
20260901141016 85 12 1.7 7.0 0.00 0.02 0.01 100 1017.9
20260901140513 85 360 0.9 7.8 0.00 0.02 0.01 100 1017.9
20260901140012 85 5 2.6 7.8 0.00 0.02 0.01 100 1018.0
20260901135513 85 52 1.7 5.2 0.00 0.02 0.01 100 1018.0
20260901135013 85 10 0.9 5.2 0.00 0.02 0.01 100 1017.9
20260901134513 85 11 0.9 5.2 0.00 0.02 0.01 100 1018.0
20260901134011 85 344 1.7 5.2 0.00 0.02 0.01 100 1018.0
20260901133507 85 16 1.7 5.2 0.00 0.02 0.01 100 1018.0
20260901133006 85 19 1.7 5.2 0.00 0.02 0.01 100 1017.9
20260901132506 84 339 2.6 5.2 0.00 0.02 0.01 100 1017.9
20260901132005 84 336 0.9 5.2 0.00 0.02 0.01 100 1017.9
20260901131503 84 355 1.7 6.1 0.00 0.02 0.01 100 1018.0
20260901131003 84 5 1.7 5.2 0.00 0.02 0.01 100 1018.0
20260901130503 84 11 0.0 4.3 0.00 0.02 0.01 100 1018.0
20260901130001 83 329 0.9 4.3 0.00 0.02 0.01 100 1017.9
20260901125600 83 43 0.0 3.5 0.00 0.02 0.01 100 1017.8
20260901125059 83 340 0.0 4.3 0.00 0.02 0.01 100 1017.7
20260901124605 82 360 0.0 4.3 0.00 0.02 0.01 100 1017.8
20260901124057 82 355 0.0 0.0 0.00 0.02 0.01 100 1017.7
20260901123558 81 336 0.0 0.0 0.00 0.02 0.01 100 1017.8
20260901123114 81 342 0.0 0.0 0.00 0.02 0.01 100 1017.8
20260901122558 80 343 0.0 0.0 0.00 0.02 0.01 100 1017.7